Regional Weather Roundup
Issued by NWS Sioux Falls, SD

Home | Current Version | Previous Version | Graphics & Text | Print | Product List | Glossary Off
Versions: 1 2 3 4 5 6 7 8 9 10 11 12 13 14 15 16 17 18 19 20 21 22 23 24 25 26 27 28 29 30 31 32 33 34 35 36 37 38 39 40 41 42 43 44 45 46 47 48 49 50

019
ASUS43 KFSD 231902
RWRFSD

WEATHER ROUNDUP FOR SE SOUTH DAKOTA/SW MINNESOTA/NW IOWA
NATIONAL WEATHER SERVICE SIOUX FALLS SD
200 PM CDT SAT JUL 23 2016

NOTE: "FAIR" INDICATES FEW OR NO CLOUDS BELOW 12,000 FEET WITH NO
SIGNIFICANT WEATHER AND OR OBSTRUCTIONS TO VISIBILITY.


SDZ038>040-050-052>070-232000-
SOUTHEAST SOUTH DAKOTA

CITY           SKY/WX    TMP DP  RH WIND       PRES   REMARKS
CHAMBERLAIN    SUNNY     94  69  44 SW14      29.74S HX 100
HURON          SUNNY     90  70  51 S16       29.72S HX  95
MADISON        FAIR      84  75  74 SW15G21   29.79S
MITCHELL       SUNNY     91  69  48 S13       29.72F HX  96
SIOUX FALLS    CLOUDY    89  73  59 S12G17    29.78S HX  97
WINNER         FAIR      97  64  33 W12       29.77R HX  99
YANKTON        SUNNY     93  70  46 S13G18    29.73F HX  99
$$

MNZ071-072-080-081-089-090-097-098-232000-
SOUTHWEST MINNESOTA

CITY           SKY/WX    TMP DP  RH WIND       PRES   REMARKS
FAIRMONT       PTSUNNY   79  54  41 SE14      29.82S
JACKSON        PTSUNNY   81  72  74 S14G20    29.85S
LUVERNE        CLOUDY    86  72  62 S9        29.80S
MARSHALL       PTSUNNY   86  75  69 S10       29.79F HX  95
MONTEVIDEO     CLOUDY    79  73  83 SE12      29.82S
REDWOOD FALLS  CLOUDY    80  75  84 E9        29.81F
TRACY          CLOUDY    85  77  76 S10G16    29.81F HX  96
WINDOM         MOSUNNY   82  73  74 S10G18    29.83F
WORTHINGTON    MOSUNNY   85  76  74 S12       29.83S
$$

IAZ001>003-012>014-020>022-031-032-NEZ013-014-SDZ071-232000-
NORTHWEST IOWA

CITY           SKY/WX    TMP DP  RH WIND       PRES   REMARKS
CHEROKEE       CLOUDY    85  77  76 S14       29.82R HX  95
DENISON        CLOUDY    84  75  74 S12G20    29.82F
ESTHERVILLE    CLOUDY    79  76  90 S16       29.83R
LE MARS        MOSUNNY   88  77  70 S14       29.80S HX 100
SHELDON        MOSUNNY   86  79  79 S13       29.80S HX  99
SIOUX CITY     MOSUNNY   92  77  61 S12       29.78F HX 105
SPENCER        CLOUDY    85  76  74 S14       29.83R
STORM LAKE       N/A     82  77  83 S15G23    29.85S
$$

ABBREVIATIONS USED IN REMARKS
   TC - TEMPERATURE IN CELSIUS
  WCI - WIND CHILL INDEX
   HX - HEAT INDEX
  VSB - VISIBILITY





USA.gov is the U.S. government's official web portal to all federal, state and local government web resources and services.